PRIVATE WETTERSTATION BILLIGHEIM-ALLFELD                       ZURCK
Wetterdaten: Dienstag, 14.03.2017
Datum Zeit Temp. A. Temp. A. min Temp. A. max Feuchte A. Luftdruck Regen Wind Richtung Richtung Sonnenschein ET Solar Taupunkt Windchill Windben Empfang
14.03.2017 00:00 2,5 C 2,5 C 2,7 C 81 % 1029,3 hPa 0,0 l/m 0,0 km/h (0 Bft) N 0 0 min 0,000 mm 0 W/m -0,4 C 2,5 C 0,0 km/h (0 Bft) 100 %
14.03.2017 00:10 2,3 C 2,3 C 2,5 C 81 % 1029,4 hPa 0,0 l/m 0,0 km/h (0 Bft) N 0 0 min 0,000 mm 0 W/m -0,6 C 2,3 C 0,0 km/h (0 Bft) 99 %
14.03.2017 00:20 2,1 C 2,1 C 2,3 C 82 % 1029,6 hPa 0,0 l/m 0,0 km/h (0 Bft) N 0 0 min 0,000 mm 0 W/m -0,6 C 2,1 C 0,0 km/h (0 Bft) 99 %
14.03.2017 00:30 2,0 C 2,0 C 2,1 C 83 % 1029,8 hPa 0,0 l/m 0,0 km/h (0 Bft) N 0 0 min 0,000 mm 0 W/m -0,6 C 2,0 C 0,0 km/h (0 Bft) 96 %
14.03.2017 00:40 1,9 C 1,9 C 2,0 C 84 % 1029,9 hPa 0,0 l/m 0,0 km/h (0 Bft) N 0 0 min 0,000 mm 0 W/m -0,5 C 1,9 C 0,0 km/h (0 Bft) 89 %
14.03.2017 00:50 1,8 C 1,8 C 1,9 C 84 % 1030,0 hPa 0,0 l/m 0,0 km/h (0 Bft) N 0 0 min 0,000 mm 0 W/m -0,6 C 1,8 C 0,0 km/h (0 Bft) 97 %
14.03.2017 01:00 1,8 C 1,8 C 1,8 C 84 % 1030,0 hPa 0,0 l/m 0,0 km/h (0 Bft) N 0 0 min 0,000 mm 0 W/m -0,6 C 1,8 C 0,0 km/h (0 Bft) 97 %
14.03.2017 01:10 1,7 C 1,7 C 1,8 C 84 % 1030,1 hPa 0,0 l/m 0,0 km/h (0 Bft) N 0 0 min 0,000 mm 0 W/m -0,7 C 1,7 C 0,0 km/h (0 Bft) 98 %
14.03.2017 01:20 1,6 C 1,6 C 1,7 C 85 % 1030,1 hPa 0,0 l/m 0,0 km/h (0 Bft) N 0 0 min 0,000 mm 0 W/m -0,6 C 1,6 C 0,0 km/h (0 Bft) 97 %
14.03.2017 01:30 1,4 C 1,4 C 1,6 C 85 % 1030,1 hPa 0,0 l/m 0,0 km/h (0 Bft) N 0 0 min 0,000 mm 0 W/m -0,8 C 1,4 C 0,0 km/h (0 Bft) 97 %
14.03.2017 01:40 1,3 C 1,3 C 1,4 C 86 % 1030,0 hPa 0,0 l/m 0,0 km/h (0 Bft) N 0 0 min 0,000 mm 0 W/m -0,8 C 1,3 C 0,0 km/h (0 Bft) 97 %
14.03.2017 01:50 1,2 C 1,2 C 1,3 C 86 % 1030,1 hPa 0,0 l/m 0,0 km/h (0 Bft) N 0 0 min 0,000 mm 0 W/m -0,9 C 1,2 C 0,0 km/h (0 Bft) 98 %
14.03.2017 02:00 1,0 C 1,0 C 1,2 C 86 % 1030,1 hPa 0,0 l/m 0,0 km/h (0 Bft) N 0 0 min 0,000 mm 0 W/m -1,1 C 1,0 C 0,0 km/h (0 Bft) 97 %
14.03.2017 02:10 0,8 C 0,8 C 1,0 C 86 % 1030,2 hPa 0,0 l/m 0,0 km/h (0 Bft) W-NW 292 0 min 0,000 mm 0 W/m -1,3 C 0,8 C 3,2 km/h (1 Bft) 89 %
14.03.2017 02:20 0,6 C 0,6 C 0,8 C 88 % 1030,3 hPa 0,0 l/m 0,0 km/h (0 Bft) W-NW 292 0 min 0,000 mm 0 W/m -1,2 C 0,6 C 3,2 km/h (1 Bft) 98 %
14.03.2017 02:30 0,6 C 0,6 C 0,6 C 88 % 1030,2 hPa 0,0 l/m 0,0 km/h (0 Bft) N 0 0 min 0,000 mm 0 W/m -1,2 C 0,6 C 0,0 km/h (0 Bft) 97 %
14.03.2017 02:40 0,7 C 0,6 C 0,7 C 88 % 1030,1 hPa 0,0 l/m 0,0 km/h (0 Bft) N 0 0 min 0,000 mm 0 W/m -1,1 C 0,7 C 0,0 km/h (0 Bft) 98 %
14.03.2017 02:50 0,7 C 0,6 C 0,7 C 88 % 1030,0 hPa 0,0 l/m 0,0 km/h (0 Bft) N 0 0 min 0,000 mm 0 W/m -1,1 C 0,7 C 0,0 km/h (0 Bft) 97 %
14.03.2017 03:00 0,5 C 0,5 C 0,7 C 88 % 1030,1 hPa 0,0 l/m 0,0 km/h (0 Bft) N 0 0 min 0,000 mm 0 W/m -1,3 C 0,5 C 0,0 km/h (0 Bft) 98 %
14.03.2017 03:10 0,3 C 0,3 C 0,5 C 88 % 1030,1 hPa 0,0 l/m 0,0 km/h (0 Bft) N 0 0 min 0,000 mm 0 W/m -1,4 C 0,3 C 0,0 km/h (0 Bft) 97 %
14.03.2017 03:20 0,2 C 0,2 C 0,3 C 89 % 1030,2 hPa 0,0 l/m 0,0 km/h (0 Bft) N 0 0 min 0,000 mm 0 W/m -1,4 C 0,2 C 0,0 km/h (0 Bft) 98 %
14.03.2017 03:30 0,1 C 0,1 C 0,2 C 89 % 1030,2 hPa 0,0 l/m 0,0 km/h (0 Bft) N 0 0 min 0,000 mm 0 W/m -1,5 C 0,1 C 0,0 km/h (0 Bft) 88 %
14.03.2017 03:40 -0,1 C -0,1 C 0,1 C 89 % 1030,3 hPa 0,0 l/m 0,0 km/h (0 Bft) N 0 0 min 0,000 mm 0 W/m -1,7 C -0,1 C 0,0 km/h (0 Bft) 98 %
14.03.2017 03:50 -0,3 C -0,3 C -0,1 C 89 % 1030,3 hPa 0,0 l/m 0,0 km/h (0 Bft) N 0 0 min 0,000 mm 0 W/m -1,9 C -0,3 C 0,0 km/h (0 Bft) 98 %
14.03.2017 04:00 -0,4 C -0,4 C -0,2 C 89 % 1030,2 hPa 0,0 l/m 0,0 km/h (0 Bft) N 0 0 min 0,000 mm 0 W/m -2,0 C -0,4 C 0,0 km/h (0 Bft) 97 %
14.03.2017 04:10 -0,5 C -0,5 C -0,4 C 90 % 1030,3 hPa 0,0 l/m 0,0 km/h (0 Bft) N 0 0 min 0,000 mm 0 W/m -1,9 C -0,5 C 0,0 km/h (0 Bft) 98 %
14.03.2017 04:20 -0,6 C -0,6 C -0,5 C 90 % 1030,3 hPa 0,0 l/m 0,0 km/h (0 Bft) N 0 0 min 0,000 mm 0 W/m -2,0 C -0,6 C 0,0 km/h (0 Bft) 97 %
14.03.2017 04:30 -0,6 C -0,7 C -0,6 C 90 % 1030,4 hPa 0,0 l/m 0,0 km/h (0 Bft) N 0 0 min 0,000 mm 0 W/m -2,0 C -0,6 C 0,0 km/h (0 Bft) 98 %
14.03.2017 04:40 -0,6 C -0,6 C -0,6 C 90 % 1030,5 hPa 0,0 l/m 0,0 km/h (0 Bft) N 0 0 min 0,000 mm 0 W/m -2,0 C -0,6 C 0,0 km/h (0 Bft) 98 %
14.03.2017 04:50 -0,6 C -0,6 C -0,5 C 91 % 1030,7 hPa 0,0 l/m 0,0 km/h (0 Bft) N 0 0 min 0,000 mm 0 W/m -1,9 C -0,6 C 0,0 km/h (0 Bft) 97 %
14.03.2017 05:00 -0,4 C -0,6 C -0,4 C 91 % 1030,9 hPa 0,0 l/m 0,0 km/h (0 Bft) N 0 0 min 0,000 mm 0 W/m -1,7 C -0,4 C 0,0 km/h (0 Bft) 98 %
14.03.2017 05:10 -0,4 C -0,5 C -0,4 C 91 % 1030,9 hPa 0,0 l/m 0,0 km/h (0 Bft) W-NW 292 0 min 0,000 mm 0 W/m -1,7 C -0,4 C 1,6 km/h (1 Bft) 97 %
14.03.2017 05:20 -0,3 C -0,4 C -0,3 C 91 % 1031,1 hPa 0,0 l/m 0,0 km/h (0 Bft) N 0 0 min 0,000 mm 0 W/m -1,6 C -0,3 C 0,0 km/h (0 Bft) 98 %
14.03.2017 05:30 -0,3 C -0,3 C -0,3 C 91 % 1031,1 hPa 0,0 l/m 0,0 km/h (0 Bft) N 0 0 min 0,000 mm 0 W/m -1,6 C -0,3 C 0,0 km/h (0 Bft) 97 %
14.03.2017 05:40 -0,3 C -0,3 C -0,3 C 91 % 1031,1 hPa 0,0 l/m 0,0 km/h (0 Bft) N 0 0 min 0,000 mm 0 W/m -1,6 C -0,3 C 0,0 km/h (0 Bft) 98 %
14.03.2017 05:50 -0,3 C -0,3 C -0,3 C 91 % 1031,2 hPa 0,0 l/m 0,0 km/h (0 Bft) N 0 0 min 0,000 mm 0 W/m -1,6 C -0,3 C 0,0 km/h (0 Bft) 97 %
14.03.2017 06:00 -0,3 C -0,3 C -0,3 C 90 % 1031,2 hPa 0,0 l/m 0,0 km/h (0 Bft) N 0 0 min 0,000 mm 0 W/m -1,7 C -0,3 C 0,0 km/h (0 Bft) 98 %
14.03.2017 06:10 -0,4 C -0,4 C -0,3 C 91 % 1031,2 hPa 0,0 l/m 0,0 km/h (0 Bft) N 0 0 min 0,000 mm 0 W/m -1,7 C -0,4 C 0,0 km/h (0 Bft) 98 %
14.03.2017 06:20 -0,6 C -0,7 C -0,4 C 90 % 1031,2 hPa 0,0 l/m 0,0 km/h (0 Bft) N 0 0 min 0,000 mm 0 W/m -2,0 C -0,6 C 0,0 km/h (0 Bft) 97 %
14.03.2017 06:30 -0,8 C -0,8 C -0,7 C 90 % 1031,3 hPa 0,0 l/m 0,0 km/h (0 Bft) N 0 0 min 0,000 mm 0 W/m -2,2 C -0,8 C 0,0 km/h (0 Bft) 98 %
14.03.2017 06:40 -1,0 C -1,0 C -0,8 C 91 % 1031,4 hPa 0,0 l/m 0,0 km/h (0 Bft) N 0 0 min 0,000 mm 0 W/m -2,3 C -1,0 C 0,0 km/h (0 Bft) 97 %
14.03.2017 06:50 -1,0 C -1,0 C -1,0 C 91 % 1031,3 hPa 0,0 l/m 0,0 km/h (0 Bft) N 0 0 min 0,000 mm 5 W/m -2,3 C -1,0 C 0,0 km/h (0 Bft) 98 %
14.03.2017 07:00 -0,9 C -1,0 C -0,9 C 91 % 1031,3 hPa 0,0 l/m 0,0 km/h (0 Bft) N 0 0 min 0,000 mm 12 W/m -2,2 C -0,9 C 0,0 km/h (0 Bft) 99 %
14.03.2017 07:10 -0,9 C -0,9 C -0,9 C 91 % 1031,4 hPa 0,0 l/m 0,0 km/h (0 Bft) N 0 0 min 0,000 mm 25 W/m -2,2 C -0,9 C 0,0 km/h (0 Bft) 100 %
14.03.2017 07:20 -0,9 C -0,9 C -0,9 C 91 % 1031,6 hPa 0,0 l/m 0,0 km/h (0 Bft) N 0 0 min 0,000 mm 37 W/m -2,2 C -0,9 C 0,0 km/h (0 Bft) 100 %
14.03.2017 07:30 -0,9 C -0,9 C -0,9 C 91 % 1031,7 hPa 0,0 l/m 0,0 km/h (0 Bft) N 0 0 min 0,000 mm 49 W/m -2,2 C -0,9 C 0,0 km/h (0 Bft) 100 %
14.03.2017 07:40 -0,7 C -0,9 C -0,7 C 91 % 1032,0 hPa 0,0 l/m 0,0 km/h (0 Bft) N 0 0 min 0,000 mm 56 W/m -2,0 C -0,7 C 0,0 km/h (0 Bft) 100 %
14.03.2017 07:50 -0,5 C -0,7 C -0,5 C 91 % 1032,2 hPa 0,0 l/m 0,0 km/h (0 Bft) N 0 0 min 0,000 mm 62 W/m -1,8 C -0,5 C 0,0 km/h (0 Bft) 100 %
14.03.2017 08:00 -0,4 C -0,5 C -0,4 C 91 % 1032,3 hPa 0,0 l/m 0,0 km/h (0 Bft) N 0 0 min 0,025 mm 63 W/m -1,7 C -0,4 C 0,0 km/h (0 Bft) 100 %
14.03.2017 08:10 -0,3 C -0,4 C -0,3 C 91 % 1032,4 hPa 0,0 l/m 0,0 km/h (0 Bft) N 0 0 min 0,000 mm 88 W/m -1,6 C -0,3 C 0,0 km/h (0 Bft) 100 %
14.03.2017 08:20 0,0 C -0,3 C 0,0 C 91 % 1032,4 hPa 0,0 l/m 0,0 km/h (0 Bft) N 0 0 min 0,000 mm 120 W/m -1,3 C 0,0 C 0,0 km/h (0 Bft) 100 %
14.03.2017 08:30 0,6 C 0,1 C 0,6 C 91 % 1032,5 hPa 0,0 l/m 0,0 km/h (0 Bft) N 0 10 min 0,000 mm 153 W/m -0,7 C 0,6 C 0,0 km/h (0 Bft) 100 %
14.03.2017 08:40 1,1 C 0,6 C 1,1 C 91 % 1032,5 hPa 0,0 l/m 0,0 km/h (0 Bft) N 0 10 min 0,000 mm 165 W/m -0,2 C 1,1 C 0,0 km/h (0 Bft) 100 %
14.03.2017 08:50 1,5 C 1,1 C 1,5 C 91 % 1032,6 hPa 0,0 l/m 0,0 km/h (0 Bft) N 0 10 min 0,000 mm 153 W/m 0,2 C 1,5 C 0,0 km/h (0 Bft) 89 %
14.03.2017 09:00 2,0 C 1,6 C 2,0 C 90 % 1032,7 hPa 0,0 l/m 0,0 km/h (0 Bft) N 0 10 min 0,051 mm 162 W/m 0,5 C 2,0 C 0,0 km/h (0 Bft) 100 %
14.03.2017 09:10 2,6 C 2,0 C 2,6 C 89 % 1032,6 hPa 0,0 l/m 1,6 km/h (1 Bft) NO 45 10 min 0,000 mm 172 W/m 1,0 C 2,6 C 4,8 km/h (1 Bft) 100 %
14.03.2017 09:20 3,1 C 2,6 C 3,1 C 89 % 1032,7 hPa 0,0 l/m 0,0 km/h (0 Bft) O-SO 112 10 min 0,000 mm 221 W/m 1,5 C 3,1 C 4,8 km/h (1 Bft) 100 %
14.03.2017 09:30 3,7 C 3,1 C 3,7 C 87 % 1032,7 hPa 0,0 l/m 3,2 km/h (1 Bft) S-SO 157 10 min 0,000 mm 325 W/m 1,7 C 3,7 C 8,0 km/h (2 Bft) 100 %
14.03.2017 09:40 4,4 C 3,7 C 4,4 C 85 % 1032,7 hPa 0,0 l/m 3,2 km/h (1 Bft) S-SW 202 10 min 0,000 mm 397 W/m 2,1 C 4,4 C 8,0 km/h (2 Bft) 100 %
14.03.2017 09:50 5,3 C 4,5 C 5,3 C 81 % 1032,8 hPa 0,0 l/m 4,8 km/h (1 Bft) S-SW 202 10 min 0,000 mm 360 W/m 2,3 C 5,3 C 8,0 km/h (2 Bft) 100 %
14.03.2017 10:00 5,8 C 5,3 C 5,8 C 77 % 1032,8 hPa 0,0 l/m 4,8 km/h (1 Bft) S-SW 202 10 min 0,102 mm 399 W/m 2,1 C 5,8 C 9,7 km/h (2 Bft) 100 %
14.03.2017 10:10 5,7 C 5,7 C 5,8 C 79 % 1032,8 hPa 0,0 l/m 3,2 km/h (1 Bft) S-SO 157 10 min 0,000 mm 376 W/m 2,3 C 5,7 C 8,0 km/h (2 Bft) 100 %
14.03.2017 10:20 6,3 C 5,7 C 6,3 C 78 % 1032,9 hPa 0,0 l/m 4,8 km/h (1 Bft) S-SW 202 10 min 0,000 mm 411 W/m 2,8 C 6,3 C 11,3 km/h (2 Bft) 99 %
14.03.2017 10:30 6,7 C 6,3 C 6,7 C 77 % 1032,7 hPa 0,0 l/m 3,2 km/h (1 Bft) S 180 10 min 0,000 mm 515 W/m 3,0 C 6,7 C 9,7 km/h (2 Bft) 98 %
14.03.2017 10:40 7,2 C 6,7 C 7,2 C 77 % 1032,8 hPa 0,0 l/m 4,8 km/h (1 Bft) S-SW 202 10 min 0,000 mm 570 W/m 3,4 C 7,2 C 11,3 km/h (2 Bft) 98 %
14.03.2017 10:50 7,3 C 7,2 C 7,3 C 74 % 1032,6 hPa 0,0 l/m 4,8 km/h (1 Bft) S-SW 202 10 min 0,000 mm 527 W/m 3,0 C 7,3 C 11,3 km/h (2 Bft) 98 %
14.03.2017 11:00 7,7 C 7,3 C 7,7 C 76 % 1032,5 hPa 0,0 l/m 6,4 km/h (2 Bft) S 180 10 min 0,178 mm 670 W/m 3,7 C 7,7 C 11,3 km/h (2 Bft) 98 %
14.03.2017 11:10 8,3 C 7,8 C 8,3 C 76 % 1032,4 hPa 0,0 l/m 4,8 km/h (1 Bft) S 180 10 min 0,000 mm 638 W/m 4,3 C 8,3 C 11,3 km/h (2 Bft) 98 %
14.03.2017 11:20 8,8 C 8,3 C 8,9 C 72 % 1032,4 hPa 0,0 l/m 3,2 km/h (1 Bft) SW 225 10 min 0,000 mm 650 W/m 4,0 C 8,8 C 9,7 km/h (2 Bft) 98 %
14.03.2017 11:30 9,1 C 8,8 C 9,1 C 74 % 1032,3 hPa 0,0 l/m 3,2 km/h (1 Bft) S-SW 202 10 min 0,000 mm 631 W/m 4,7 C 9,1 C 11,3 km/h (2 Bft) 98 %
14.03.2017 11:40 9,4 C 9,1 C 9,4 C 73 % 1032,4 hPa 0,0 l/m 3,2 km/h (1 Bft) S-SW 202 10 min 0,000 mm 592 W/m 4,8 C 9,4 C 9,7 km/h (2 Bft) 98 %
14.03.2017 11:50 9,7 C 9,4 C 9,7 C 76 % 1032,3 hPa 0,0 l/m 3,2 km/h (1 Bft) S-SW 202 10 min 0,000 mm 606 W/m 5,7 C 9,7 C 9,7 km/h (2 Bft) 98 %
14.03.2017 12:00 10,1 C 9,7 C 10,1 C 73 % 1032,1 hPa 0,0 l/m 3,2 km/h (1 Bft) S 180 10 min 0,254 mm 698 W/m 5,5 C 10,1 C 9,7 km/h (2 Bft) 98 %
14.03.2017 12:10 10,7 C 10,1 C 10,7 C 73 % 1032,0 hPa 0,0 l/m 3,2 km/h (1 Bft) S-SW 202 10 min 0,000 mm 824 W/m 6,1 C 10,7 C 14,5 km/h (3 Bft) 98 %
14.03.2017 12:20 10,8 C 10,7 C 10,8 C 71 % 1032,0 hPa 0,0 l/m 3,2 km/h (1 Bft) S-SO 157 10 min 0,000 mm 575 W/m 5,8 C 10,8 C 9,7 km/h (2 Bft) 98 %
14.03.2017 12:30 10,8 C 10,8 C 10,8 C 72 % 1032,0 hPa 0,0 l/m 3,2 km/h (1 Bft) S-SW 202 10 min 0,000 mm 408 W/m 6,0 C 10,8 C 11,3 km/h (2 Bft) 97 %
14.03.2017 12:40 11,2 C 10,8 C 11,2 C 73 % 1032,0 hPa 0,0 l/m 4,8 km/h (1 Bft) S-SW 202 10 min 0,000 mm 673 W/m 6,5 C 11,2 C 16,1 km/h (3 Bft) 98 %
14.03.2017 12:50 11,7 C 11,2 C 11,7 C 70 % 1032,1 hPa 0,0 l/m 4,8 km/h (1 Bft) S-SW 202 10 min 0,000 mm 635 W/m 6,4 C 11,7 C 17,7 km/h (3 Bft) 98 %
14.03.2017 13:00 12,2 C 11,7 C 12,2 C 69 % 1031,8 hPa 0,0 l/m 4,8 km/h (1 Bft) S-SW 202 10 min 0,254 mm 645 W/m 6,7 C 12,2 C 17,7 km/h (3 Bft) 98 %
14.03.2017 13:10 12,5 C 12,2 C 12,5 C 68 % 1031,7 hPa 0,0 l/m 9,7 km/h (2 Bft) S-SW 202 10 min 0,000 mm 594 W/m 6,8 C 10,5 C 17,7 km/h (3 Bft) 98 %
14.03.2017 13:20 12,8 C 12,5 C 12,8 C 66 % 1031,7 hPa 0,0 l/m 6,4 km/h (2 Bft) S-SW 202 10 min 0,000 mm 592 W/m 6,6 C 12,8 C 14,5 km/h (3 Bft) 97 %
14.03.2017 13:30 12,9 C 12,8 C 12,9 C 66 % 1031,6 hPa 0,0 l/m 9,7 km/h (2 Bft) S-SW 202 10 min 0,000 mm 555 W/m 6,7 C 11,0 C 16,1 km/h (3 Bft) 98 %
14.03.2017 13:40 12,6 C 12,6 C 12,9 C 66 % 1031,5 hPa 0,0 l/m 3,2 km/h (1 Bft) SW 225 10 min 0,000 mm 195 W/m 6,4 C 12,6 C 9,7 km/h (2 Bft) 98 %
14.03.2017 13:50 12,5 C 12,5 C 12,6 C 65 % 1031,4 hPa 0,0 l/m 6,4 km/h (2 Bft) W-SW 247 10 min 0,000 mm 613 W/m 6,1 C 12,5 C 29,0 km/h (5 Bft) 98 %
14.03.2017 14:00 12,6 C 12,4 C 12,6 C 65 % 1031,4 hPa 0,0 l/m 6,4 km/h (2 Bft) W-SW 247 10 min 0,229 mm 621 W/m 6,2 C 12,6 C 16,1 km/h (3 Bft) 98 %
14.03.2017 14:10 13,1 C 12,7 C 13,1 C 66 % 1031,4 hPa 0,0 l/m 8,0 km/h (2 Bft) W-SW 247 10 min 0,000 mm 557 W/m 6,9 C 12,1 C 14,5 km/h (3 Bft) 98 %
14.03.2017 14:20 13,5 C 13,1 C 13,5 C 64 % 1031,2 hPa 0,0 l/m 4,8 km/h (1 Bft) W 270 10 min 0,000 mm 515 W/m 6,8 C 13,5 C 14,5 km/h (3 Bft) 98 %
14.03.2017 14:30 13,9 C 13,5 C 13,9 C 61 % 1031,1 hPa 0,0 l/m 3,2 km/h (1 Bft) W 270 10 min 0,000 mm 512 W/m 6,5 C 13,9 C 11,3 km/h (2 Bft) 97 %
14.03.2017 14:40 14,2 C 13,9 C 14,2 C 61 % 1031,1 hPa 0,0 l/m 4,8 km/h (1 Bft) W-SW 247 10 min 0,000 mm 487 W/m 6,8 C 14,2 C 16,1 km/h (3 Bft) 97 %
14.03.2017 14:50 14,3 C 14,2 C 14,3 C 60 % 1030,9 hPa 0,0 l/m 3,2 km/h (1 Bft) SW 225 10 min 0,000 mm 475 W/m 6,6 C 14,3 C 14,5 km/h (3 Bft) 97 %
14.03.2017 15:00 14,2 C 14,2 C 14,3 C 59 % 1031,0 hPa 0,0 l/m 6,4 km/h (2 Bft) SW 225 10 min 0,229 mm 234 W/m 6,3 C 14,2 C 17,7 km/h (3 Bft) 98 %
14.03.2017 15:10 14,1 C 14,1 C 14,2 C 61 % 1030,6 hPa 0,0 l/m 8,0 km/h (2 Bft) W-SW 247 0 min 0,000 mm 123 W/m 6,7 C 13,2 C 17,7 km/h (3 Bft) 98 %
14.03.2017 15:20 13,9 C 13,9 C 14,1 C 61 % 1030,4 hPa 0,0 l/m 8,0 km/h (2 Bft) S-SW 202 0 min 0,000 mm 95 W/m 6,5 C 12,9 C 16,1 km/h (3 Bft) 98 %
14.03.2017 15:30 13,8 C 13,8 C 13,8 C 62 % 1030,2 hPa 0,0 l/m 6,4 km/h (2 Bft) SW 225 0 min 0,000 mm 84 W/m 6,6 C 13,8 C 17,7 km/h (3 Bft) 97 %
14.03.2017 15:40 13,7 C 13,7 C 13,8 C 60 % 1030,2 hPa 0,0 l/m 6,4 km/h (2 Bft) S-SW 202 0 min 0,000 mm 79 W/m 6,1 C 13,7 C 17,7 km/h (3 Bft) 98 %
14.03.2017 15:50 13,7 C 13,7 C 13,7 C 58 % 1030,1 hPa 0,0 l/m 8,0 km/h (2 Bft) S-SW 202 0 min 0,000 mm 70 W/m 5,6 C 12,7 C 19,3 km/h (3 Bft) 98 %
14.03.2017 16:00 13,7 C 13,7 C 13,7 C 55 % 1030,0 hPa 0,0 l/m 8,0 km/h (2 Bft) W-SW 247 0 min 0,076 mm 76 W/m 4,8 C 12,7 C 17,7 km/h (3 Bft) 98 %
14.03.2017 16:10 13,6 C 13,6 C 13,7 C 59 % 1030,0 hPa 0,0 l/m 8,0 km/h (2 Bft) W 270 0 min 0,000 mm 83 W/m 5,7 C 12,6 C 17,7 km/h (3 Bft) 97 %
14.03.2017 16:20 13,5 C 13,5 C 13,6 C 58 % 1030,0 hPa 0,0 l/m 6,4 km/h (2 Bft) SW 225 0 min 0,000 mm 81 W/m 5,4 C 13,5 C 19,3 km/h (3 Bft) 97 %
14.03.2017 16:30 13,5 C 13,5 C 13,5 C 56 % 1030,4 hPa 0,0 l/m 6,4 km/h (2 Bft) W 270 0 min 0,000 mm 81 W/m 4,9 C 13,5 C 17,7 km/h (3 Bft) 98 %
14.03.2017 16:40 13,3 C 13,3 C 13,5 C 57 % 1030,6 hPa 0,0 l/m 8,0 km/h (2 Bft) W 270 0 min 0,000 mm 72 W/m 5,0 C 12,3 C 17,7 km/h (3 Bft) 97 %
14.03.2017 16:50 13,1 C 13,1 C 13,3 C 55 % 1030,6 hPa 0,0 l/m 9,7 km/h (2 Bft) NW 315 0 min 0,000 mm 62 W/m 4,3 C 11,2 C 19,3 km/h (3 Bft) 98 %
14.03.2017 17:00 12,9 C 12,9 C 13,1 C 56 % 1030,5 hPa 0,0 l/m 6,4 km/h (2 Bft) W-NW 292 0 min 0,076 mm 63 W/m 4,3 C 12,9 C 14,5 km/h (3 Bft) 97 %
14.03.2017 17:10 12,9 C 12,9 C 12,9 C 56 % 1030,5 hPa 0,0 l/m 1,6 km/h (1 Bft) W-NW 292 0 min 0,000 mm 65 W/m 4,3 C 12,9 C 9,7 km/h (2 Bft) 98 %
14.03.2017 17:20 12,8 C 12,8 C 12,9 C 57 % 1030,3 hPa 0,0 l/m 3,2 km/h (1 Bft) W 270 0 min 0,000 mm 63 W/m 4,5 C 12,8 C 11,3 km/h (2 Bft) 98 %
14.03.2017 17:30 12,8 C 12,8 C 12,8 C 58 % 1030,5 hPa 0,0 l/m 1,6 km/h (1 Bft) NW 315 0 min 0,000 mm 62 W/m 4,7 C 12,8 C 11,3 km/h (2 Bft) 98 %
14.03.2017 17:40 12,7 C 12,7 C 12,8 C 60 % 1030,6 hPa 0,0 l/m 1,6 km/h (1 Bft) W 270 0 min 0,000 mm 53 W/m 5,1 C 12,7 C 9,7 km/h (2 Bft) 98 %
14.03.2017 17:50 12,6 C 12,6 C 12,7 C 61 % 1030,6 hPa 0,0 l/m 1,6 km/h (1 Bft) NW 315 0 min 0,000 mm 46 W/m 5,3 C 12,6 C 9,7 km/h (2 Bft) 91 %
14.03.2017 18:00 12,3 C 12,3 C 12,5 C 62 % 1030,6 hPa 0,0 l/m 3,2 km/h (1 Bft) W-NW 292 0 min 0,051 mm 30 W/m 5,2 C 12,3 C 14,5 km/h (3 Bft) 95 %
14.03.2017 18:10 12,1 C 12,1 C 12,3 C 63 % 1030,5 hPa 0,0 l/m 1,6 km/h (1 Bft) W-NW 292 0 min 0,000 mm 18 W/m 5,3 C 12,1 C 9,7 km/h (2 Bft) 97 %
14.03.2017 18:20 11,8 C 11,8 C 12,1 C 64 % 1030,4 hPa 0,0 l/m 1,6 km/h (1 Bft) W-NW 292 0 min 0,000 mm 9 W/m 5,2 C 11,8 C 9,7 km/h (2 Bft) 98 %
14.03.2017 18:30 11,5 C 11,5 C 11,8 C 65 % 1030,6 hPa 0,0 l/m 0,0 km/h (0 Bft) N 0 0 min 0,000 mm 0 W/m 5,2 C 11,5 C 0,0 km/h (0 Bft) 97 %
14.03.2017 18:40 11,2 C 11,2 C 11,5 C 66 % 1030,9 hPa 0,0 l/m 0,0 km/h (0 Bft) W-NW 292 0 min 0,000 mm 0 W/m 5,1 C 11,2 C 1,6 km/h (1 Bft) 98 %
14.03.2017 18:50 10,8 C 10,8 C 11,2 C 67 % 1030,9 hPa 0,0 l/m 0,0 km/h (0 Bft) N-NW 337 0 min 0,000 mm 0 W/m 4,9 C 10,8 C 4,8 km/h (1 Bft) 98 %
14.03.2017 19:00 10,3 C 10,3 C 10,8 C 69 % 1030,9 hPa 0,0 l/m 0,0 km/h (0 Bft) N 0 0 min 0,000 mm 0 W/m 4,9 C 10,3 C 0,0 km/h (0 Bft) 97 %
14.03.2017 19:10 9,7 C 9,7 C 10,3 C 72 % 1030,6 hPa 0,0 l/m 0,0 km/h (0 Bft) N-NW 337 0 min 0,000 mm 0 W/m 4,9 C 9,7 C 1,6 km/h (1 Bft) 98 %
14.03.2017 19:20 9,7 C 9,7 C 9,7 C 72 % 1030,7 hPa 0,0 l/m 0,0 km/h (0 Bft) N 0 0 min 0,000 mm 0 W/m 4,9 C 9,7 C 0,0 km/h (0 Bft) 97 %
14.03.2017 19:30 9,7 C 9,6 C 9,7 C 72 % 1030,8 hPa 0,0 l/m 0,0 km/h (0 Bft) N 0 0 min 0,000 mm 0 W/m 4,9 C 9,7 C 0,0 km/h (0 Bft) 98 %
14.03.2017 19:50 9,5 C 9,5 C 9,7 C 72 % 1030,7 hPa 0,0 l/m 0,0 km/h (0 Bft) N 5 0 min 0,000 mm 0 W/m 4,7 C 9,5 C 0,0 km/h (0 Bft) 99 %
14.03.2017 20:00 9,3 C 9,3 C 9,5 C 73 % 1030,7 hPa 0,0 l/m 0,0 km/h (0 Bft) N 5 0 min 0,000 mm 0 W/m 4,7 C 9,3 C 0,0 km/h (0 Bft) 99 %
14.03.2017 20:10 8,8 C 8,8 C 9,3 C 74 % 1031,0 hPa 0,0 l/m 0,0 km/h (0 Bft) N 5 0 min 0,024 mm 0 W/m 4,4 C 8,8 C 0,0 km/h (0 Bft) 100 %
14.03.2017 20:20 8,5 C 8,5 C 8,8 C 76 % 1031,0 hPa 0,0 l/m 0,0 km/h (0 Bft) N 5 0 min 0,000 mm 0 W/m 4,5 C 8,5 C 0,0 km/h (0 Bft) 100 %
14.03.2017 20:30 8,2 C 8,2 C 8,5 C 77 % 1031,2 hPa 0,0 l/m 0,0 km/h (0 Bft) N 5 0 min 0,000 mm 0 W/m 4,4 C 8,2 C 0,0 km/h (0 Bft) 99 %
14.03.2017 20:40 8,0 C 8,0 C 8,2 C 77 % 1031,2 hPa 0,0 l/m 0,0 km/h (0 Bft) N 5 0 min 0,000 mm 0 W/m 4,2 C 8,0 C 0,0 km/h (0 Bft) 100 %
14.03.2017 20:50 7,7 C 7,7 C 8,0 C 79 % 1031,1 hPa 0,0 l/m 0,0 km/h (0 Bft) N 5 0 min 0,000 mm 0 W/m 4,3 C 7,7 C 0,0 km/h (0 Bft) 100 %
14.03.2017 21:00 7,6 C 7,6 C 7,7 C 80 % 1031,0 hPa 0,0 l/m 0,0 km/h (0 Bft) N 5 0 min 0,000 mm 0 W/m 4,4 C 7,6 C 0,0 km/h (0 Bft) 99 %
14.03.2017 21:10 7,5 C 7,5 C 7,6 C 80 % 1031,1 hPa 0,0 l/m 0,0 km/h (0 Bft) N 0 0 min 0,000 mm 0 W/m 4,3 C 7,5 C 0,0 km/h (0 Bft) 99 %
14.03.2017 21:20 7,4 C 7,4 C 7,5 C 80 % 1031,1 hPa 0,0 l/m 0,0 km/h (0 Bft) N 0 0 min 0,000 mm 0 W/m 4,2 C 7,4 C 0,0 km/h (0 Bft) 100 %
14.03.2017 21:30 7,2 C 7,2 C 7,4 C 81 % 1031,2 hPa 0,0 l/m 0,0 km/h (0 Bft) N 0 0 min 0,000 mm 0 W/m 4,2 C 7,2 C 0,0 km/h (0 Bft) 100 %
14.03.2017 21:40 6,8 C 6,8 C 7,2 C 82 % 1031,3 hPa 0,0 l/m 0,0 km/h (0 Bft) N 0 0 min 0,000 mm 0 W/m 3,9 C 6,8 C 0,0 km/h (0 Bft) 100 %
14.03.2017 21:50 6,7 C 6,7 C 6,8 C 83 % 1031,2 hPa 0,0 l/m 0,0 km/h (0 Bft) N 0 0 min 0,000 mm 0 W/m 4,0 C 6,7 C 0,0 km/h (0 Bft) 100 %
14.03.2017 22:00 6,4 C 6,4 C 6,6 C 84 % 1031,1 hPa 0,0 l/m 0,0 km/h (0 Bft) N 0 0 min 0,000 mm 0 W/m 3,9 C 6,4 C 0,0 km/h (0 Bft) 100 %
14.03.2017 22:10 6,2 C 6,2 C 6,4 C 84 % 1031,1 hPa 0,0 l/m 0,0 km/h (0 Bft) N 0 0 min 0,000 mm 0 W/m 3,7 C 6,2 C 0,0 km/h (0 Bft) 100 %
14.03.2017 22:20 6,0 C 6,0 C 6,2 C 85 % 1031,1 hPa 0,0 l/m 0,0 km/h (0 Bft) N 0 0 min 0,000 mm 0 W/m 3,7 C 6,0 C 0,0 km/h (0 Bft) 100 %
14.03.2017 22:30 5,9 C 5,9 C 6,0 C 86 % 1031,1 hPa 0,0 l/m 0,0 km/h (0 Bft) N 0 0 min 0,000 mm 0 W/m 3,7 C 5,9 C 0,0 km/h (0 Bft) 100 %
14.03.2017 22:40 5,8 C 5,8 C 5,9 C 86 % 1031,0 hPa 0,0 l/m 0,0 km/h (0 Bft) N 0 0 min 0,000 mm 0 W/m 3,6 C 5,8 C 0,0 km/h (0 Bft) 100 %
14.03.2017 22:50 5,7 C 5,7 C 5,8 C 87 % 1031,1 hPa 0,0 l/m 0,0 km/h (0 Bft) N 0 0 min 0,000 mm 0 W/m 3,7 C 5,7 C 0,0 km/h (0 Bft) 100 %
14.03.2017 23:00 5,7 C 5,7 C 5,7 C 87 % 1031,1 hPa 0,0 l/m 0,0 km/h (0 Bft) N 0 0 min 0,000 mm 0 W/m 3,7 C 5,7 C 0,0 km/h (0 Bft) 100 %
14.03.2017 23:10 5,6 C 5,6 C 5,7 C 87 % 1031,1 hPa 0,0 l/m 0,0 km/h (0 Bft) N 0 0 min 0,000 mm 0 W/m 3,6 C 5,6 C 0,0 km/h (0 Bft) 100 %
14.03.2017 23:20 5,6 C 5,6 C 5,6 C 87 % 1031,2 hPa 0,0 l/m 0,0 km/h (0 Bft) N 0 0 min 0,000 mm 0 W/m 3,6 C 5,6 C 0,0 km/h (0 Bft) 100 %
14.03.2017 23:30 5,4 C 5,4 C 5,5 C 88 % 1031,2 hPa 0,0 l/m 0,0 km/h (0 Bft) N 0 0 min 0,000 mm 0 W/m 3,6 C 5,4 C 0,0 km/h (0 Bft) 100 %
14.03.2017 23:40 5,1 C 5,1 C 5,4 C 88 % 1031,2 hPa 0,0 l/m 0,0 km/h (0 Bft) N 0 0 min 0,000 mm 0 W/m 3,3 C 5,1 C 0,0 km/h (0 Bft) 100 %
14.03.2017 23:50 4,9 C 4,9 C 5,1 C 89 % 1031,1 hPa 0,0 l/m 0,0 km/h (0 Bft) N 0 0 min 0,000 mm 0 W/m 3,2 C 4,9 C 0,0 km/h (0 Bft) 100 %
_ Min-Zeit 06:40 06:40 06:50 16:00 00:00 - 00:00 - - - - - 06:40 06:40 00:00 03:30
Minimum _ -1,0 C -1,0 C -1,0 C 55 % 1029,3 hPa - 0,0 km/h (0 Bft) - - - - - -2,3 C -1,0 C 0,0 km/h (0 Bft) 88 %
_ Max-Zeit 14:50 14:50 14:50 04:50 10:20 00:00 13:10 - - 08:30 12:00 12:10 14:10 14:50 13:50 00:00
Maximum _ 14,3 C 14,2 C 14,3 C 91 % 1032,9 hPa 0,0 l/m 9,7 km/h
S-SW (2 Bft)
- - 10 min 0,254 mm 824 W/m 6,9 C 14,3 C 29,0 km/h
S-SW (5 Bft)
100 %
Durchschnitt _ 6,1 C 6,0 C 6,2 C 78 % 1031,1 hPa #0,0 l/m 1,9 km/h (1 Bft) S-SW - #6:40 h #1,549 mm 299 W/m 2,4 C 6,0 C 5,3 km/h (1 Bft) 98 %
PRIVATE WETTERSTATION BILLIGHEIM-ALLFELD - www.neckar-odenwald-wetter.de - Holger Sonntag